Tracking 18673 objects as of 26-June-2017
HD Live streaming from Space Station
objects crossing your sky now

COSMOS 2251 DEB

Track COSMOS 2251 DEB now!
10-day predictions


NORAD ID: 35448
Int'l Code: 1993-036AKS
Perigee: 753.5 km
Apogee: 775.9 km
Inclination: 73.9 °
Period: 100.0 minutes
Semi major axis: 7135 km
RCS: 0.0138 m2 (small)
Launch date: June 16, 1993
Source: Commonwealth of Independent States (former USSR) (CIS)
Launch site: PLESETSK MISSILE AND SPACE COMPLEX (PKMTR)

Note: This is SATELLITE DEBRIS
Your satellite tracking list
Your tracking list is empty





NASA's NSSDC Master Catalog

Two Line Element Set (TLE):
1 35448U 93036AKS 17175.25110447 +.00000408 +00000-0 +13726-3 0  9994
2 35448 073.9092 124.1359 0015660 227.9145 132.0679 14.40287251426946
Source of the keplerian elements: AFSPC